START_TIME,STEP,MOV.,M35,t_acc.,PL05,t_acc.,PL06,t_acc.,PL07,t_acc.
1981-08-25 15:00:24.860 ,3,0,0.,4.8,288.,4.8,4.,4.8,1.,4.8
1981-08-25 15:00:29.660 ,3,0,0.,4.8,296.,4.8,5.,4.8,0.,4.8
1981-08-25 15:00:34.460 ,3,0,0.,4.8,252.,4.8,8.,4.8,0.,4.8
1981-08-25 15:00:39.260 ,3,0,0.,4.8,248.,4.8,7.,4.8,0.,4.8
1981-08-25 15:00:44.060 ,3,0,0.,4.8,252.,4.8,11.,4.8,0.,4.8
1981-08-25 15:00:48.860 ,4,0,0.,4.8,248.,4.8,14.,4.8,2.,4.8
1981-08-25 15:00:53.660 ,4,0,0.,4.8,256.,4.8,6.,4.8,0.,4.8
1981-08-25 15:00:58.460 ,4,0,0.,4.8,288.,4.8,5.,4.8,0.,4.8
1981-08-25 15:01:03.260 ,4,0,0.,4.8,256.,4.8,3.,4.8,0.,4.8
1981-08-25 15:01:08.060 ,4,0,0.,4.8,264.,4.8,2.,4.8,1.,4.8
1981-08-25 15:01:12.860 ,4,0,0.,4.8,256.,4.8,7.,4.8,0.,4.8
1981-08-25 15:01:17.660 ,4,0,0.,4.8,248.,4.8,7.,4.8,1.,4.8
1981-08-25 15:01:22.460 ,4,0,0.,4.8,236.,4.8,7.,4.8,1.,4.8
1981-08-25 15:01:27.260 ,4,0,0.,4.8,264.,4.8,9.,4.8,0.,4.8
1981-08-25 15:01:32.060 ,4,0,0.,4.8,236.,4.8,8.,4.8,1.,4.8
1981-08-25 15:01:36.860 ,5,0,0.,4.8,240.,4.8,5.,4.8,0.,4.8
1981-08-25 15:01:41.660 ,5,0,0.,4.8,264.,4.8,9.,4.8,2.,4.8
1981-08-25 15:01:46.460 ,5,0,0.,4.8,248.,4.8,7.,4.8,0.,4.8
1981-08-25 15:01:51.260 ,5,0,0.,4.8,272.,4.8,4.,4.8,0.,4.8
1981-08-25 15:01:56.060 ,5,0,0.,4.8,252.,4.8,3.,4.8,0.,4.8
1981-08-25 15:02:00.860 ,5,0,0.,4.8,228.,4.8,3.,4.8,1.,4.8
1981-08-25 15:02:05.660 ,5,0,0.,4.8,248.,4.8,3.,4.8,1.,4.8
1981-08-25 15:02:10.460 ,5,0,0.,4.8,212.,4.8,9.,4.8,1.,4.8
1981-08-25 15:02:15.260 ,5,0,0.,4.8,244.,4.8,6.,4.8,1.,4.8
1981-08-25 15:02:20.060 ,5,0,0.,4.8,212.,4.8,9.,4.8,1.,4.8
1981-08-25 15:02:24.860 ,6,0,0.,4.8,228.,4.8,6.,4.8,2.,4.8
1981-08-25 15:02:29.660 ,6,0,0.,4.8,244.,4.8,4.,4.8,0.,4.8
1981-08-25 15:02:34.460 ,6,0,0.,4.8,240.,4.8,2.,4.8,0.,4.8
1981-08-25 15:02:39.260 ,6,0,0.,4.8,236.,4.8,11.,4.8,0.,4.8
1981-08-25 15:02:44.060 ,6,0,0.,4.8,248.,4.8,10.,4.8,0.,4.8
1981-08-25 15:02:48.860 ,6,0,0.,4.8,220.,4.8,6.,4.8,0.,4.8
1981-08-25 15:02:53.660 ,6,0,0.,4.8,236.,4.8,6.,4.8,1.,4.8
1981-08-25 15:02:58.460 ,6,0,0.,4.8,248.,4.8,4.,4.8,2.,4.8
1981-08-25 15:03:03.260 ,6,0,0.,4.8,232.,4.8,6.,4.8,2.,4.8
1981-08-25 15:03:08.060 ,6,0,0.,4.8,256.,4.8,7.,4.8,1.,4.8
1981-08-25 15:03:12.860 ,7,0,0.,4.8,240.,4.8,2.,4.8,1.,4.8
1981-08-25 15:03:17.660 ,7,0,0.,4.8,236.,4.8,7.,4.8,2.,4.8
1981-08-25 15:03:22.460 ,7,0,0.,4.8,6.,4.8,0.,4.8,1.,4.8
1981-08-25 15:03:27.260 ,7,0,0.,4.8,1.,4.8,0.,4.8,0.,4.8
1981-08-25 15:03:32.060 ,7,0,0.,4.8,1.,4.8,0.,4.8,0.,4.8
1981-08-25 15:03:36.860 ,7,0,0.,4.8,2.,4.8,0.,4.8,0.,4.8
1981-08-25 15:03:41.660 ,7,0,0.,4.8,0.,4.8,0.,4.8,0.,4.8
1981-08-25 15:03:46.460 ,7,0,0.,4.8,1.,4.8,0.,4.8,0.,4.8
1981-08-25 15:03:51.260 ,7,0,0.,4.8,0.,4.8,1.,4.8,0.,4.8
1981-08-25 15:03:56.060 ,7,0,0.,4.8,0.,4.8,0.,4.8,0.,4.8
1981-08-25 15:04:00.860 ,7,0,0.,4.8,0.,4.8,0.,4.8,0.,4.8
1981-08-25 15:04:05.660 ,7,0,0.,4.8,0.,4.8,0.,4.8,0.,4.8
1981-08-25 15:04:10.460 ,7,0,0.,4.8,1.,4.8,0.,4.8,0.,4.8
1981-08-25 15:04:15.260 ,7,0,0.,4.8,1.,4.8,0.,4.8,0.,4.8
1981-08-25 15:04:20.060 ,7,0,0.,4.8,0.,4.8,0.,4.8,0.,4.8
1981-08-25 15:04:24.860 ,7,0,0.,4.8,0.,4.8,0.,4.8,0.,4.8
1981-08-25 15:04:29.660 ,7,0,0.,4.8,2.,4.8,0.,4.8,0.,4.8
1981-08-25 15:04:34.460 ,7,0,0.,4.8,2.,4.8,0.,4.8,0.,4.8
1981-08-25 15:04:39.260 ,7,0,0.,4.8,1.,4.8,0.,4.8,1.,4.8
1981-08-25 15:04:44.060 ,7,0,0.,4.8,3.,4.8,1.,4.8,0.,4.8
1981-08-25 15:04:48.860 ,6,0,0.,4.8,0.,4.8,0.,4.8,0.,4.8
1981-08-25 15:04:53.660 ,6,0,0.,4.8,2.,4.8,0.,4.8,0.,4.8
1981-08-25 15:04:58.460 ,6,0,0.,4.8,304.,4.8,5.,4.8,0.,4.8
1981-08-25 15:05:03.260 ,6,0,0.,4.8,304.,4.8,7.,4.8,1.,4.8
1981-08-25 15:05:08.060 ,6,0,0.,4.8,312.,4.8,8.,4.8,0.,4.8
1981-08-25 15:05:12.860 ,6,0,0.,4.8,296.,4.8,10.,4.8,2.,4.8
1981-08-25 15:05:17.660 ,6,0,0.,4.8,304.,4.8,8.,4.8,0.,4.8
1981-08-25 15:05:22.460 ,6,0,0.,4.8,304.,4.8,4.,4.8,0.,4.8
1981-08-25 15:05:27.260 ,6,0,0.,4.8,304.,4.8,6.,4.8,1.,4.8
1981-08-25 15:05:32.060 ,6,0,0.,4.8,304.,4.8,12.,4.8,0.,4.8
1981-08-25 15:05:36.860 ,5,0,0.,4.8,336.,4.8,2.,4.8,0.,4.8
1981-08-25 15:05:41.660 ,5,0,0.,4.8,312.,4.8,5.,4.8,0.,4.8
1981-08-25 15:05:46.460 ,5,0,0.,4.8,312.,4.8,6.,4.8,1.,4.8
1981-08-25 15:05:51.260 ,5,0,0.,4.8,320.,4.8,4.,4.8,1.,4.8
1981-08-25 15:05:56.060 ,5,0,0.,4.8,320.,4.8,6.,4.8,0.,4.8
1981-08-25 15:06:00.860 ,5,0,0.,4.8,288.,4.8,3.,4.8,0.,4.8
1981-08-25 15:06:05.660 ,5,0,0.,4.8,328.,4.8,6.,4.8,0.,4.8
1981-08-25 15:06:10.460 ,5,0,0.,4.8,272.,4.8,5.,4.8,0.,4.8
1981-08-25 15:06:15.260 ,5,0,0.,4.8,296.,4.8,5.,4.8,2.,4.8
1981-08-25 15:06:20.060 ,5,0,0.,4.8,304.,4.8,4.,4.8,1.,4.8
1981-08-25 15:06:24.860 ,4,0,0.,4.8,304.,4.8,2.,4.8,0.,4.8
1981-08-25 15:06:29.660 ,4,0,0.,4.8,328.,4.8,5.,4.8,1.,4.8
1981-08-25 15:06:34.460 ,4,0,0.,4.8,304.,4.8,7.,4.8,2.,4.8
1981-08-25 15:06:39.260 ,4,0,0.,4.8,256.,4.8,9.,4.8,1.,4.8
1981-08-25 15:06:44.060 ,4,0,0.,4.8,280.,4.8,4.,4.8,1.,4.8
1981-08-25 15:06:48.860 ,4,0,0.,4.8,264.,4.8,9.,4.8,1.,4.8
1981-08-25 15:06:53.660 ,4,0,0.,4.8,252.,4.8,4.,4.8,0.,4.8
1981-08-25 15:06:58.460 ,4,0,0.,4.8,248.,4.8,5.,4.8,0.,4.8
1981-08-25 15:07:03.260 ,4,0,0.,4.8,264.,4.8,5.,4.8,3.,4.8
1981-08-25 15:07:08.060 ,4,0,0.,4.8,244.,4.8,4.,4.8,1.,4.8
1981-08-25 15:07:12.860 ,3,0,0.,4.8,232.,4.8,6.,4.8,1.,4.8
1981-08-25 15:07:17.660 ,3,0,0.,4.8,272.,4.8,5.,4.8,1.,4.8
1981-08-25 15:07:22.460 ,3,0,0.,4.8,200.,4.8,6.,4.8,0.,4.8
1981-08-25 15:07:27.260 ,3,0,0.,4.8,208.,4.8,14.,4.8,0.,4.8
1981-08-25 15:07:32.060 ,3,0,1.,4.8,224.,4.8,7.,4.8,1.,4.8
1981-08-25 15:07:36.860 ,3,0,0.,4.8,204.,4.8,8.,4.8,0.,4.8
1981-08-25 15:07:41.660 ,3,0,0.,4.8,196.,4.8,7.,4.8,1.,4.8
1981-08-25 15:07:46.460 ,3,0,0.,4.8,208.,4.8,7.,4.8,0.,4.8
1981-08-25 15:07:51.260 ,3,0,0.,4.8,208.,4.8,5.,4.8,0.,4.8
1981-08-25 15:07:56.060 ,3,0,0.,4.8,216.,4.8,13.,4.8,0.,4.8
1981-08-25 15:08:00.860 ,2,0,0.,4.8,200.,4.8,6.,4.8,0.,4.8
1981-08-25 15:08:05.660 ,2,0,0.,4.8,220.,4.8,6.,4.8,1.,4.8
1981-08-25 15:08:10.460 ,2,0,1.,4.8,312.,4.8,10.,4.8,0.,4.8
1981-08-25 15:08:15.260 ,2,0,0.,4.8,296.,4.8,11.,4.8,3.,4.8
1981-08-25 15:08:20.060 ,2,0,1.,4.8,288.,4.8,11.,4.8,1.,4.8
1981-08-25 15:08:24.860 ,2,0,0.,4.8,352.,4.8,4.,4.8,1.,4.8
1981-08-25 15:08:29.660 ,2,0,0.,4.8,360.,4.8,10.,4.8,0.,4.8
1981-08-25 15:08:34.460 ,2,0,0.,4.8,384.,4.8,9.,4.8,1.,4.8
1981-08-25 15:08:39.260 ,2,0,0.,4.8,376.,4.8,10.,4.8,0.,4.8
1981-08-25 15:08:44.060 ,2,0,0.,4.8,368.,4.8,9.,4.8,1.,4.8
1981-08-25 15:08:48.860 ,1,0,0.,4.8,320.,4.8,9.,4.8,1.,4.8
1981-08-25 15:08:53.660 ,1,0,1.,4.8,360.,4.8,8.,4.8,1.,4.8
1981-08-25 15:08:58.460 ,1,0,0.,4.8,312.,4.8,9.,4.8,0.,4.8
1981-08-25 15:09:03.260 ,1,0,0.,4.8,320.,4.8,6.,4.8,2.,4.8
1981-08-25 15:09:08.060 ,1,0,0.,4.8,376.,4.8,9.,4.8,0.,4.8
1981-08-25 15:09:12.860 ,1,0,0.,4.8,392.,4.8,10.,4.8,0.,4.8
1981-08-25 15:09:17.660 ,1,0,0.,4.8,376.,4.8,13.,4.8,0.,4.8
1981-08-25 15:09:22.460 ,1,0,0.,4.8,360.,4.8,8.,4.8,0.,4.8
1981-08-25 15:09:27.260 ,1,0,0.,4.8,352.,4.8,8.,4.8,1.,4.8
1981-08-25 15:09:32.060 ,1,0,0.,4.8,376.,4.8,11.,4.8,0.,4.8
1981-08-25 15:09:36.860 ,0,0,0.,4.8,336.,4.8,3.,4.8,2.,4.8
1981-08-25 15:09:41.660 ,0,0,0.,4.8,376.,4.8,6.,4.8,0.,4.8
1981-08-25 15:09:46.460 ,0,0,0.,4.8,424.,4.8,9.,4.8,3.,4.8
1981-08-25 15:09:51.260 ,0,0,0.,4.8,336.,4.8,9.,4.8,0.,4.8
1981-08-25 15:09:56.060 ,0,0,0.,4.8,360.,4.8,14.,4.8,0.,4.8
1981-08-25 15:10:00.860 ,0,0,0.,4.8,384.,4.8,11.,4.8,2.,4.8
1981-08-25 15:10:05.660 ,0,0,0.,4.8,360.,4.8,11.,4.8,1.,4.8
1981-08-25 15:10:10.460 ,0,0,0.,4.8,392.,4.8,12.,4.8,1.,4.8
1981-08-25 15:10:15.260 ,0,0,0.,4.8,368.,4.8,9.,4.8,1.,4.8
1981-08-25 15:10:20.060 ,0,0,1.,4.8,376.,4.8,11.,4.8,1.,4.8
1981-08-25 15:10:24.860 ,0,0,0.,4.8,392.,4.8,11.,4.8,0.,4.8
1981-08-25 15:10:29.660 ,0,0,0.,4.8,384.,4.8,12.,4.8,1.,4.8
1981-08-25 15:10:34.460 ,0,0,1.,4.8,368.,4.8,3.,4.8,2.,4.8
1981-08-25 15:10:39.260 ,0,0,0.,4.8,408.,4.8,13.,4.8,1.,4.8
1981-08-25 15:10:44.060 ,0,0,0.,4.8,360.,4.8,7.,4.8,2.,4.8
1981-08-25 15:10:48.860 ,0,0,0.,4.8,400.,4.8,9.,4.8,0.,4.8
1981-08-25 15:10:53.660 ,0,0,0.,4.8,344.,4.8,11.,4.8,0.,4.8
1981-08-25 15:10:58.460 ,0,0,0.,4.8,360.,4.8,11.,4.8,2.,4.8
1981-08-25 15:11:03.260 ,0,0,0.,4.8,392.,4.8,11.,4.8,2.,4.8
1981-08-25 15:11:08.060 ,0,0,0.,4.8,368.,4.8,15.,4.8,0.,4.8
1981-08-25 15:11:12.860 ,1,0,0.,4.8,384.,4.8,8.,4.8,2.,4.8
1981-08-25 15:11:17.660 ,1,0,0.,4.8,352.,4.8,14.,4.8,1.,4.8
1981-08-25 15:11:22.460 ,1,0,0.,4.8,344.,4.8,14.,4.8,1.,4.8
1981-08-25 15:11:27.260 ,1,0,0.,4.8,360.,4.8,16.,4.8,2.,4.8
1981-08-25 15:11:32.060 ,1,0,0.,4.8,344.,4.8,12.,4.8,0.,4.8
1981-08-25 15:11:36.860 ,1,0,0.,4.8,376.,4.8,8.,4.8,1.,4.8
1981-08-25 15:11:41.660 ,1,0,0.,4.8,368.,4.8,8.,4.8,2.,4.8
1981-08-25 15:11:46.460 ,1,0,0.,4.8,360.,4.8,12.,4.8,0.,4.8
1981-08-25 15:11:51.260 ,1,0,0.,4.8,352.,4.8,10.,4.8,1.,4.8
1981-08-25 15:11:56.060 ,1,0,0.,4.8,376.,4.8,7.,4.8,0.,4.8
1981-08-25 15:12:00.860 ,2,0,0.,4.8,344.,4.8,14.,4.8,0.,4.8
1981-08-25 15:12:05.660 ,2,0,0.,4.8,336.,4.8,10.,4.8,3.,4.8
1981-08-25 15:12:10.460 ,2,0,0.,4.8,344.,4.8,12.,4.8,1.,4.8
1981-08-25 15:12:15.260 ,2,0,0.,4.8,360.,4.8,12.,4.8,1.,4.8
1981-08-25 15:12:20.060 ,2,0,0.,4.8,328.,4.8,6.,4.8,1.,4.8
1981-08-25 15:12:24.860 ,2,0,0.,4.8,384.,4.8,10.,4.8,1.,4.8
1981-08-25 15:12:29.660 ,2,0,0.,4.8,344.,4.8,7.,4.8,0.,4.8
1981-08-25 15:12:34.460 ,2,0,0.,4.8,360.,4.8,16.,4.8,1.,4.8
1981-08-25 15:12:39.260 ,2,0,0.,4.8,368.,4.8,12.,4.8,0.,4.8
1981-08-25 15:12:44.060 ,2,0,0.,4.8,392.,4.8,7.,4.8,1.,4.8
1981-08-25 15:12:48.860 ,3,0,0.,4.8,328.,4.8,17.,4.8,1.,4.8
1981-08-25 15:12:53.660 ,3,0,1.,4.8,376.,4.8,9.,4.8,1.,4.8
1981-08-25 15:12:58.460 ,3,0,0.,4.8,360.,4.8,11.,4.8,2.,4.8
1981-08-25 15:13:03.260 ,3,0,0.,4.8,368.,4.8,11.,4.8,0.,4.8
1981-08-25 15:13:08.060 ,3,0,0.,4.8,384.,4.8,10.,4.8,0.,4.8
1981-08-25 15:13:12.860 ,3,0,0.,4.8,344.,4.8,5.,4.8,1.,4.8
1981-08-25 15:13:17.660 ,3,0,0.,4.8,368.,4.8,15.,4.8,1.,4.8
1981-08-25 15:13:22.460 ,3,0,0.,4.8,384.,4.8,14.,4.8,1.,4.8
1981-08-25 15:13:27.260 ,3,0,0.,4.8,368.,4.8,11.,4.8,0.,4.8
1981-08-25 15:13:32.060 ,3,0,0.,4.8,384.,4.8,11.,4.8,0.,4.8
1981-08-25 15:13:36.860 ,4,0,0.,4.8,384.,4.8,10.,4.8,0.,4.8
1981-08-25 15:13:41.660 ,4,0,0.,4.8,328.,4.8,14.,4.8,0.,4.8
1981-08-25 15:13:46.460 ,4,0,0.,4.8,400.,4.8,13.,4.8,0.,4.8
1981-08-25 15:13:51.260 ,4,0,0.,4.8,384.,4.8,9.,4.8,4.,4.8
1981-08-25 15:13:56.060 ,4,0,0.,4.8,392.,4.8,10.,4.8,0.,4.8
1981-08-25 15:14:00.860 ,4,0,0.,4.8,416.,4.8,12.,4.8,1.,4.8
1981-08-25 15:14:05.660 ,4,0,0.,4.8,400.,4.8,10.,4.8,0.,4.8
1981-08-25 15:14:10.460 ,4,0,0.,4.8,392.,4.8,14.,4.8,0.,4.8
1981-08-25 15:14:15.260 ,4,0,0.,4.8,392.,4.8,10.,4.8,3.,4.8
1981-08-25 15:14:20.060 ,4,0,0.,4.8,352.,4.8,10.,4.8,1.,4.8
1981-08-25 15:14:24.860 ,5,0,0.,4.8,392.,4.8,13.,4.8,2.,4.8
1981-08-25 15:14:29.660 ,5,0,1.,4.8,424.,4.8,14.,4.8,0.,4.8
1981-08-25 15:14:34.460 ,5,0,1.,4.8,392.,4.8,12.,4.8,1.,4.8
1981-08-25 15:14:39.260 ,5,0,0.,4.8,416.,4.8,6.,4.8,2.,4.8
1981-08-25 15:14:44.060 ,5,0,0.,4.8,384.,4.8,12.,4.8,1.,4.8
1981-08-25 15:14:48.860 ,5,0,0.,4.8,432.,4.8,19.,4.8,0.,4.8
1981-08-25 15:14:53.660 ,5,0,0.,4.8,456.,4.8,14.,4.8,1.,4.8
1981-08-25 15:14:58.460 ,5,0,1.,4.8,448.,4.8,24.,4.8,0.,4.8
1981-08-25 15:15:03.260 ,5,0,0.,4.8,432.,4.8,15.,4.8,0.,4.8
1981-08-25 15:15:08.060 ,5,0,0.,4.8,416.,4.8,14.,4.8,3.,4.8
1981-08-25 15:15:12.860 ,6,0,0.,4.8,488.,4.8,9.,4.8,1.,4.8
1981-08-25 15:15:17.660 ,6,0,0.,4.8,408.,4.8,15.,4.8,0.,4.8
1981-08-25 15:15:22.460 ,6,0,0.,4.8,528.,4.8,8.,4.8,4.,4.8
1981-08-25 15:15:27.260 ,6,0,0.,4.8,504.,4.8,11.,4.8,1.,4.8
1981-08-25 15:15:32.060 ,6,0,0.,4.8,528.,4.8,15.,4.8,0.,4.8
1981-08-25 15:15:36.860 ,6,0,0.,4.8,504.,4.8,12.,4.8,0.,4.8
1981-08-25 15:15:41.660 ,6,0,0.,4.8,528.,4.8,11.,4.8,0.,4.8
1981-08-25 15:15:46.460 ,6,0,0.,4.8,576.,4.8,12.,4.8,1.,4.8
1981-08-25 15:15:51.260 ,6,0,0.,4.8,480.,4.8,20.,4.8,3.,4.8
1981-08-25 15:15:56.060 ,6,0,0.,4.8,504.,4.8,16.,4.8,1.,4.8
1981-08-25 15:16:00.860 ,7,0,0.,4.8,576.,4.8,10.,4.8,1.,4.8
1981-08-25 15:16:05.660 ,7,0,0.,4.8,528.,4.8,14.,4.8,5.,4.8
1981-08-25 15:16:10.460 ,7,0,0.,4.8,14.,4.8,1.,4.8,0.,4.8
1981-08-25 15:16:15.260 ,7,0,0.,4.8,0.,4.8,0.,4.8,0.,4.8
1981-08-25 15:16:20.060 ,7,0,0.,4.8,3.,4.8,0.,4.8,0.,4.8
1981-08-25 15:16:24.860 ,7,0,0.,4.8,3.,4.8,0.,4.8,0.,4.8
1981-08-25 15:16:29.660 ,7,0,0.,4.8,4.,4.8,0.,4.8,0.,4.8
1981-08-25 15:16:34.460 ,7,0,0.,4.8,1.,4.8,0.,4.8,0.,4.8
1981-08-25 15:16:39.260 ,7,0,0.,4.8,2.,4.8,0.,4.8,1.,4.8
1981-08-25 15:16:44.060 ,7,0,0.,4.8,3.,4.8,0.,4.8,0.,4.8
1981-08-25 15:16:48.860 ,7,0,0.,4.8,3.,4.8,0.,4.8,0.,4.8
1981-08-25 15:16:53.660 ,7,0,0.,4.8,0.,4.8,0.,4.8,0.,4.8
1981-08-25 15:16:58.460 ,7,0,0.,4.8,2.,4.8,0.,4.8,0.,4.8
1981-08-25 15:17:03.260 ,7,0,0.,4.8,1.,4.8,1.,4.8,0.,4.8
1981-08-25 15:17:08.060 ,7,0,0.,4.8,0.,4.8,1.,4.8,0.,4.8
1981-08-25 15:17:12.860 ,7,0,0.,4.8,1.,4.8,0.,4.8,1.,4.8
1981-08-25 15:17:17.660 ,7,0,0.,4.8,1.,4.8,0.,4.8,0.,4.8
1981-08-25 15:17:22.460 ,7,0,0.,4.8,3.,4.8,1.,4.8,0.,4.8
1981-08-25 15:17:27.260 ,7,0,0.,4.8,1.,4.8,0.,4.8,0.,4.8
1981-08-25 15:17:32.060 ,7,0,0.,4.8,1.,4.8,0.,4.8,0.,4.8
1981-08-25 15:17:36.860 ,6,0,0.,4.8,3.,4.8,0.,4.8,0.,4.8
1981-08-25 15:17:41.660 ,6,0,0.,4.8,5.,4.8,0.,4.8,0.,4.8
1981-08-25 15:17:46.460 ,6,0,1.,4.8,480.,4.8,12.,4.8,1.,4.8
1981-08-25 15:17:51.260 ,6,0,0.,4.8,472.,4.8,15.,4.8,1.,4.8
1981-08-25 15:17:56.060 ,6,0,0.,4.8,496.,4.8,15.,4.8,4.,4.8
1981-08-25 15:18:00.860 ,6,0,0.,4.8,440.,4.8,21.,4.8,2.,4.8
1981-08-25 15:18:05.660 ,6,0,0.,4.8,480.,4.8,22.,4.8,0.,4.8
1981-08-25 15:18:10.460 ,6,0,0.,4.8,496.,4.8,8.,4.8,0.,4.8
1981-08-25 15:18:15.260 ,6,0,0.,4.8,472.,4.8,19.,4.8,1.,4.8
1981-08-25 15:18:20.060 ,6,0,0.,4.8,512.,4.8,17.,4.8,2.,4.8
1981-08-25 15:18:24.860 ,5,0,0.,4.8,504.,4.8,14.,4.8,1.,4.8
1981-08-25 15:18:29.660 ,5,0,0.,4.8,472.,4.8,15.,4.8,0.,4.8
1981-08-25 15:18:34.460 ,5,0,0.,4.8,512.,4.8,15.,4.8,1.,4.8
1981-08-25 15:18:39.260 ,5,0,0.,4.8,512.,4.8,14.,4.8,2.,4.8
1981-08-25 15:18:44.060 ,5,0,0.,4.8,528.,4.8,22.,4.8,3.,4.8
1981-08-25 15:18:48.860 ,5,0,0.,4.8,488.,4.8,13.,4.8,0.,4.8
1981-08-25 15:18:53.660 ,5,0,0.,4.8,480.,4.8,10.,4.8,0.,4.8
1981-08-25 15:18:58.460 ,5,0,0.,4.8,544.,4.8,12.,4.8,0.,4.8
1981-08-25 15:19:03.260 ,5,0,0.,4.8,480.,4.8,11.,4.8,2.,4.8
1981-08-25 15:19:08.060 ,5,0,0.,4.8,496.,4.8,15.,4.8,4.,4.8
1981-08-25 15:19:12.860 ,4,0,0.,4.8,544.,4.8,17.,4.8,1.,4.8
1981-08-25 15:19:17.660 ,4,0,0.,4.8,496.,4.8,15.,4.8,1.,4.8
1981-08-25 15:19:22.460 ,4,0,0.,4.8,424.,4.8,10.,4.8,0.,4.8
1981-08-25 15:19:27.260 ,4,0,0.,4.8,448.,4.8,13.,4.8,0.,4.8
1981-08-25 15:19:32.060 ,4,0,0.,4.8,432.,4.8,18.,4.8,1.,4.8
1981-08-25 15:19:36.860 ,4,0,0.,4.8,432.,4.8,9.,4.8,2.,4.8
1981-08-25 15:19:41.660 ,4,0,0.,4.8,376.,4.8,13.,4.8,1.,4.8
1981-08-25 15:19:46.460 ,4,0,0.,4.8,440.,4.8,12.,4.8,2.,4.8
1981-08-25 15:19:51.260 ,4,0,0.,4.8,432.,4.8,14.,4.8,2.,4.8
1981-08-25 15:19:56.060 ,4,0,0.,4.8,448.,4.8,17.,4.8,1.,4.8
1981-08-25 15:20:00.860 ,3,0,0.,4.8,408.,4.8,14.,4.8,2.,4.8
1981-08-25 15:20:05.660 ,3,0,0.,4.8,448.,4.8,7.,4.8,0.,4.8
1981-08-25 15:20:10.460 ,3,0,0.,4.8,392.,4.8,14.,4.8,1.,4.8
1981-08-25 15:20:15.260 ,3,0,0.,4.8,440.,4.8,21.,4.8,2.,4.8
1981-08-25 15:20:20.060 ,3,0,0.,4.8,392.,4.8,7.,4.8,1.,4.8
1981-08-25 15:20:24.860 ,3,0,0.,4.8,400.,4.8,14.,4.8,1.,4.8
1981-08-25 15:20:29.660 ,3,0,0.,4.8,392.,4.8,16.,4.8,1.,4.8
1981-08-25 15:20:34.460 ,3,0,0.,4.8,384.,4.8,12.,4.8,2.,4.8
1981-08-25 15:20:39.260 ,3,0,0.,4.8,432.,4.8,12.,4.8,0.,4.8
1981-08-25 15:20:44.060 ,3,0,0.,4.8,408.,4.8,19.,4.8,2.,4.8
1981-08-25 15:20:48.860 ,2,0,0.,4.8,400.,4.8,13.,4.8,1.,4.8
1981-08-25 15:20:53.660 ,2,0,0.,4.8,416.,4.8,5.,4.8,2.,4.8
1981-08-25 15:20:58.460 ,2,0,0.,4.8,400.,4.8,17.,4.8,2.,4.8
1981-08-25 15:21:03.260 ,2,0,0.,4.8,376.,4.8,12.,4.8,0.,4.8
1981-08-25 15:21:08.060 ,2,0,0.,4.8,384.,4.8,10.,4.8,1.,4.8
1981-08-25 15:21:12.860 ,2,0,0.,4.8,400.,4.8,15.,4.8,1.,4.8
1981-08-25 15:21:17.660 ,2,0,0.,4.8,384.,4.8,8.,4.8,1.,4.8
1981-08-25 15:21:22.460 ,2,0,0.,4.8,408.,4.8,12.,4.8,1.,4.8
1981-08-25 15:21:27.260 ,2,0,0.,4.8,400.,4.8,9.,4.8,0.,4.8
1981-08-25 15:21:32.060 ,2,0,0.,4.8,392.,4.8,10.,4.8,1.,4.8
1981-08-25 15:21:36.860 ,1,0,0.,4.8,440.,4.8,10.,4.8,1.,4.8
1981-08-25 15:21:41.660 ,1,0,0.,4.8,432.,4.8,15.,4.8,1.,4.8
1981-08-25 15:21:46.460 ,1,0,0.,4.8,408.,4.8,14.,4.8,1.,4.8
1981-08-25 15:21:51.260 ,1,0,0.,4.8,432.,4.8,8.,4.8,2.,4.8
1981-08-25 15:21:56.060 ,1,0,0.,4.8,424.,4.8,14.,4.8,2.,4.8
1981-08-25 15:22:00.860 ,1,0,0.,4.8,416.,4.8,9.,4.8,3.,4.8
1981-08-25 15:22:05.660 ,1,0,0.,4.8,440.,4.8,13.,4.8,0.,4.8
1981-08-25 15:22:10.460 ,1,0,0.,4.8,440.,4.8,10.,4.8,0.,4.8
1981-08-25 15:22:15.260 ,1,0,0.,4.8,464.,4.8,8.,4.8,2.,4.8
1981-08-25 15:22:20.060 ,1,0,0.,4.8,448.,4.8,10.,4.8,2.,4.8
1981-08-25 15:22:24.860 ,0,0,0.,4.8,408.,4.8,15.,4.8,0.,4.8
1981-08-25 15:22:29.660 ,0,0,0.,4.8,400.,4.8,19.,4.8,0.,4.8
1981-08-25 15:22:34.460 ,0,0,0.,4.8,376.,4.8,14.,4.8,0.,4.8
1981-08-25 15:22:39.260 ,0,0,0.,4.8,416.,4.8,13.,4.8,1.,4.8
1981-08-25 15:22:44.060 ,0,0,0.,4.8,424.,4.8,12.,4.8,1.,4.8
1981-08-25 15:22:48.860 ,0,0,0.,4.8,440.,4.8,11.,4.8,2.,4.8
1981-08-25 15:22:53.660 ,0,0,,0,,0,,0,,0
1981-08-25 15:22:58.460 ,0,0,0.,4.8,432.,4.8,20.,4.8,3.,4.8
1981-08-25 15:23:03.260 ,0,0,0.,4.8,424.,4.8,19.,4.8,4.,4.8
1981-08-25 15:23:08.060 ,0,0,0.,4.8,432.,4.8,10.,4.8,2.,4.8
1981-08-25 15:23:12.850 ,0,0,0.,4.8,440.,4.8,12.,4.8,1.,4.8
1981-08-25 15:23:17.650 ,0,0,0.,4.8,424.,4.8,17.,4.8,0.,4.8
1981-08-25 15:23:22.450 ,0,0,0.,4.8,448.,4.8,7.,4.8,0.,4.8
1981-08-25 15:23:27.260 ,0,0,0.,4.8,432.,4.8,15.,4.8,0.,4.8
1981-08-25 15:23:32.050 ,0,0,0.,4.8,432.,4.8,12.,4.8,0.,4.8
1981-08-25 15:23:36.850 ,0,0,0.,4.8,440.,4.8,18.,4.8,1.,4.8
1981-08-25 15:23:41.650 ,0,0,0.,4.8,448.,4.8,13.,4.8,1.,4.8
1981-08-25 15:23:46.450 ,0,0,0.,4.8,480.,4.8,13.,4.8,2.,4.8
1981-08-25 15:23:51.260 ,0,0,0.,4.8,440.,4.8,15.,4.8,1.,4.8
1981-08-25 15:23:56.050 ,0,0,0.,4.8,440.,4.8,8.,4.8,0.,4.8
1981-08-25 15:24:00.850 ,1,0,0.,4.8,448.,4.8,13.,4.8,1.,4.8
1981-08-25 15:24:05.650 ,1,0,0.,4.8,448.,4.8,15.,4.8,1.,4.8
1981-08-25 15:24:10.450 ,1,0,0.,4.8,384.,4.8,14.,4.8,0.,4.8
1981-08-25 15:24:15.260 ,1,0,0.,4.8,408.,4.8,18.,4.8,4.,4.8
1981-08-25 15:24:20.050 ,1,0,0.,4.8,352.,4.8,19.,4.8,0.,4.8
1981-08-25 15:24:24.850 ,1,0,0.,4.8,376.,4.8,15.,4.8,0.,4.8
1981-08-25 15:24:29.650 ,1,0,0.,4.8,384.,4.8,18.,4.8,2.,4.8
1981-08-25 15:24:34.450 ,1,0,0.,4.8,392.,4.8,15.,4.8,1.,4.8
1981-08-25 15:24:39.260 ,1,0,0.,4.8,424.,4.8,20.,4.8,2.,4.8
1981-08-25 15:24:44.050 ,1,0,0.,4.8,416.,4.8,14.,4.8,0.,4.8
1981-08-25 15:24:48.850 ,2,0,0.,4.8,416.,4.8,12.,4.8,2.,4.8
1981-08-25 15:24:53.650 ,2,0,0.,4.8,400.,4.8,14.,4.8,2.,4.8
1981-08-25 15:24:58.450 ,2,0,0.,4.8,448.,4.8,21.,4.8,2.,4.8
1981-08-25 15:25:03.260 ,2,0,0.,4.8,416.,4.8,11.,4.8,0.,4.8
1981-08-25 15:25:08.050 ,2,0,0.,4.8,400.,4.8,18.,4.8,3.,4.8
1981-08-25 15:25:12.850 ,2,0,0.,4.8,432.,4.8,6.,4.8,2.,4.8
1981-08-25 15:25:17.650 ,2,0,0.,4.8,464.,4.8,11.,4.8,1.,4.8
1981-08-25 15:25:22.450 ,2,0,0.,4.8,440.,4.8,19.,4.8,1.,4.8
1981-08-25 15:25:27.260 ,2,0,0.,4.8,408.,4.8,17.,4.8,1.,4.8
1981-08-25 15:25:32.050 ,2,0,0.,4.8,424.,4.8,11.,4.8,1.,4.8
1981-08-25 15:25:36.850 ,3,0,0.,4.8,408.,4.8,8.,4.8,1.,4.8
1981-08-25 15:25:41.650 ,3,0,0.,4.8,424.,4.8,10.,4.8,1.,4.8
1981-08-25 15:25:46.450 ,3,0,0.,4.8,368.,4.8,14.,4.8,0.,4.8
1981-08-25 15:25:51.260 ,3,0,0.,4.8,424.,4.8,17.,4.8,2.,4.8
1981-08-25 15:25:56.050 ,3,0,0.,4.8,416.,4.8,16.,4.8,1.,4.8
1981-08-25 15:26:00.850 ,3,0,0.,4.8,432.,4.8,13.,4.8,4.,4.8
1981-08-25 15:26:05.650 ,3,0,0.,4.8,400.,4.8,7.,4.8,1.,4.8
1981-08-25 15:26:10.450 ,3,0,0.,4.8,424.,4.8,14.,4.8,0.,4.8
1981-08-25 15:26:15.260 ,3,0,0.,4.8,456.,4.8,15.,4.8,0.,4.8
1981-08-25 15:26:20.050 ,3,0,0.,4.8,416.,4.8,11.,4.8,1.,4.8
1981-08-25 15:26:24.850 ,4,0,0.,4.8,424.,4.8,11.,4.8,2.,4.8
1981-08-25 15:26:29.650 ,4,0,0.,4.8,440.,4.8,6.,4.8,1.,4.8
1981-08-25 15:26:34.450 ,4,0,0.,4.8,472.,4.8,13.,4.8,0.,4.8
1981-08-25 15:26:39.260 ,4,0,0.,4.8,408.,4.8,19.,4.8,2.,4.8
1981-08-25 15:26:44.050 ,4,0,0.,4.8,432.,4.8,12.,4.8,0.,4.8
1981-08-25 15:26:48.850 ,4,0,0.,4.8,448.,4.8,16.,4.8,3.,4.8
1981-08-25 15:26:53.650 ,4,0,0.,4.8,440.,4.8,9.,4.8,1.,4.8
1981-08-25 15:26:58.450 ,4,0,0.,4.8,424.,4.8,13.,4.8,0.,4.8
1981-08-25 15:27:03.260 ,4,0,0.,4.8,424.,4.8,15.,4.8,0.,4.8
1981-08-25 15:27:08.050 ,4,0,0.,4.8,448.,4.8,14.,4.8,1.,4.8
1981-08-25 15:27:12.850 ,5,0,0.,4.8,488.,4.8,16.,4.8,3.,4.8
1981-08-25 15:27:17.650 ,5,0,0.,4.8,432.,4.8,14.,4.8,1.,4.8
1981-08-25 15:27:22.450 ,5,0,0.,4.8,480.,4.8,14.,4.8,2.,4.8
1981-08-25 15:27:27.260 ,5,0,0.,4.8,472.,4.8,7.,4.8,2.,4.8
1981-08-25 15:27:32.050 ,5,0,0.,4.8,472.,4.8,17.,4.8,1.,4.8
1981-08-25 15:27:36.850 ,5,0,0.,4.8,488.,4.8,12.,4.8,1.,4.8
1981-08-25 15:27:41.650 ,5,0,0.,4.8,496.,4.8,14.,4.8,2.,4.8
1981-08-25 15:27:46.450 ,5,0,1.,4.8,512.,4.8,14.,4.8,2.,4.8
1981-08-25 15:27:51.260 ,5,0,0.,4.8,528.,4.8,10.,4.8,0.,4.8
1981-08-25 15:27:56.050 ,5,0,0.,4.8,496.,4.8,6.,4.8,1.,4.8
1981-08-25 15:28:00.850 ,6,0,1.,4.8,504.,4.8,11.,4.8,1.,4.8
1981-08-25 15:28:05.650 ,6,0,0.,4.8,464.,4.8,9.,4.8,1.,4.8
1981-08-25 15:28:10.450 ,6,0,0.,4.8,496.,4.8,14.,4.8,2.,4.8
1981-08-25 15:28:15.260 ,6,0,0.,4.8,496.,4.8,16.,4.8,0.,4.8
1981-08-25 15:28:20.050 ,6,0,0.,4.8,528.,4.8,11.,4.8,1.,4.8
1981-08-25 15:28:24.850 ,6,0,0.,4.8,504.,4.8,13.,4.8,2.,4.8
1981-08-25 15:28:29.650 ,6,0,0.,4.8,512.,4.8,14.,4.8,1.,4.8
1981-08-25 15:28:34.450 ,6,0,0.,4.8,488.,4.8,10.,4.8,1.,4.8
1981-08-25 15:28:39.260 ,6,0,0.,4.8,528.,4.8,25.,4.8,2.,4.8
1981-08-25 15:28:44.050 ,6,0,0.,4.8,496.,4.8,11.,4.8,0.,4.8
1981-08-25 15:28:48.850 ,7,0,0.,4.8,496.,4.8,13.,4.8,2.,4.8
1981-08-25 15:28:53.650 ,7,0,0.,4.8,512.,4.8,7.,4.8,1.,4.8
1981-08-25 15:28:58.450 ,7,0,0.,4.8,13.,4.8,0.,4.8,0.,4.8
1981-08-25 15:29:03.260 ,7,0,0.,4.8,0.,4.8,0.,4.8,0.,4.8
1981-08-25 15:29:08.050 ,7,0,0.,4.8,1.,4.8,0.,4.8,0.,4.8
1981-08-25 15:29:12.850 ,7,0,0.,4.8,2.,4.8,0.,4.8,0.,4.8
1981-08-25 15:29:17.650 ,7,0,0.,4.8,0.,4.8,0.,4.8,0.,4.8
1981-08-25 15:29:22.450 ,7,0,0.,4.8,3.,4.8,0.,4.8,0.,4.8
1981-08-25 15:29:27.260 ,7,0,0.,4.8,2.,4.8,0.,4.8,0.,4.8
1981-08-25 15:29:32.050 ,7,0,0.,4.8,4.,4.8,0.,4.8,0.,4.8
1981-08-25 15:29:36.850 ,7,0,0.,4.8,3.,4.8,0.,4.8,0.,4.8
1981-08-25 15:29:41.650 ,7,0,0.,4.8,4.,4.8,0.,4.8,0.,4.8
1981-08-25 15:29:46.450 ,7,0,,0,,0,,0,,0
1981-08-25 15:29:51.260 ,7,0,0.,4.8,2.,4.8,0.,4.8,0.,4.8
1981-08-25 15:29:56.050 ,7,0,0.,4.8,1.,4.8,0.,4.8,1.,4.8
1981-08-25 15:30:00.850 ,7,0,0.,4.8,1.,4.8,1.,4.8,0.,4.8
1981-08-25 15:30:05.650 ,7,0,0.,4.8,2.,4.8,0.,4.8,1.,4.8
1981-08-25 15:30:10.450 ,7,0,0.,4.8,2.,4.8,0.,4.8,1.,4.8
1981-08-25 15:30:15.260 ,7,0,0.,4.8,0.,4.8,0.,4.8,0.,4.8
1981-08-25 15:30:20.050 ,7,0,0.,4.8,5.,4.8,0.,4.8,0.,4.8
1981-08-25 15:30:24.850 ,6,0,0.,4.8,1.,4.8,0.,4.8,0.,4.8
1981-08-25 15:30:29.650 ,6,0,0.,4.8,7.,4.8,1.,4.8,0.,4.8
1981-08-25 15:30:34.450 ,6,0,0.,4.8,560.,4.8,19.,4.8,2.,4.8
1981-08-25 15:30:39.260 ,6,0,0.,4.8,544.,4.8,14.,4.8,0.,4.8
1981-08-25 15:30:44.050 ,6,0,0.,4.8,512.,4.8,25.,4.8,0.,4.8
1981-08-25 15:30:48.850 ,6,0,0.,4.8,544.,4.8,13.,4.8,2.,4.8
1981-08-25 15:30:53.650 ,6,0,0.,4.8,544.,4.8,9.,4.8,0.,4.8
1981-08-25 15:30:58.450 ,6,0,0.,4.8,560.,4.8,14.,4.8,2.,4.8
1981-08-25 15:31:03.260 ,6,0,1.,4.8,544.,4.8,15.,4.8,1.,4.8
1981-08-25 15:31:08.050 ,6,0,1.,4.8,512.,4.8,20.,4.8,1.,4.8
1981-08-25 15:31:12.850 ,5,0,0.,4.8,488.,4.8,17.,4.8,0.,4.8
1981-08-25 15:31:17.650 ,5,0,0.,4.8,504.,4.8,13.,4.8,2.,4.8
1981-08-25 15:31:22.450 ,5,0,0.,4.8,512.,4.8,16.,4.8,1.,4.8
1981-08-25 15:31:27.260 ,5,0,0.,4.8,512.,4.8,15.,4.8,2.,4.8
1981-08-25 15:31:32.050 ,5,0,0.,4.8,512.,4.8,11.,4.8,1.,4.8
1981-08-25 15:31:36.850 ,5,0,0.,4.8,512.,4.8,12.,4.8,2.,4.8
1981-08-25 15:31:41.650 ,5,0,0.,4.8,464.,4.8,24.,4.8,4.,4.8
1981-08-25 15:31:46.450 ,5,0,0.,4.8,512.,4.8,15.,4.8,2.,4.8
1981-08-25 15:31:51.260 ,5,0,0.,4.8,512.,4.8,20.,4.8,1.,4.8
1981-08-25 15:31:56.050 ,5,0,0.,4.8,488.,4.8,10.,4.8,1.,4.8
1981-08-25 15:32:00.850 ,4,0,0.,4.8,528.,4.8,14.,4.8,1.,4.8
1981-08-25 15:32:05.650 ,4,0,0.,4.8,528.,4.8,14.,4.8,1.,4.8